sat.trackr.live / text

‹ back to catalog

STARLINK-32170

NORAD 60591 · 2024-150J

PAYLOAD ACTIVE UNKNOWN

§ Identity

Operator
Country
US
Launch date
2024-08-20
Launch site
AFETR
Launch vehicle
Mass (kg)
RCS (m²)

Purposes: comms

External: N2YO · Heavens-Above · Gunter

§ Orbital elements

Epoch: 2026-05-24T21:20:56.896224Z

Period
94.11 min
Inclination
53.1605°
Eccentricity
0.0000585
Mean motion
15.30197154 rev/d
Perigee alt
474.8 km
Apogee alt
475.6 km
Semi-major
6,853.4 km
B*
-9.0836e-5
RAAN
313.3882°
Arg perigee
92.0279°
Mean anomaly
268.0789°
Rev number
9,962

§ Raw data

STARLINK-321701 60591U 24150J   26144.88954741 -.00003048  00000+0 -90836-4 0  99922 60591  53.1605 313.3882 0000585  92.0279 268.0789 15.30197154 99620

JSON: /api/v1/satellites/60591 · /tle

For live sub-satellite position, see the globe view (requires WebGL).

§ Visibility from observer

Set your observer location to see the next 7 days of passes ≥ 10°. The values pass through the URL so the page stays shareable.

No JS? Fill the form by hand. The geolocation button needs JavaScript.